Regional Weather Roundup
Issued by NWS

Home | Current Version | Previous Version | Graphics & Text | Print | Product List | Glossary On
Versions: 1 2 3 4 5 6 7 8 9 10 11 12 13 14 15 16 17 18 19 20 21 22 23 24 25 26 27 28 29 30 31 32 33 34 35 36 37 38 39 40 41 42 43 44 45 46 47 48 49 50
000
ASUS43 KLMK 280802
RWRKY
KENTUCKY REGIONAL WEATHER ROUNDUP
NATIONAL WEATHER SERVICE LOUISVILLE KY
400 AM EDT FRI JUL 28 2017

NOTE "FAIR" INDICATES FEW OR NO CLOUDS BELOW 12,000 FEET
WITH NO SIGNIFICANT WEATHER AND/OR OBSTRUCTIONS TO VISIBILITY.

KYZ001>023-026-027-061>063-070>075-280900-
WESTERN AND SOUTH CENTRAL KENTUCKY

CITY           SKY/WX    TMP DP  RH WIND       PRES   REMARKS
PADUCAH        CLOUDY    78  75  90 W5        29.83S
HENDERSON      TSTM      75  74  96 N9        29.83F FOG
OWENSBORO      CLOUDY    74  72  93 SW6       29.82F
HOPKINSVILLE   CLOUDY    75  75  99 SW9       29.85F
BOWLING GREEN  CLOUDY    75  73  93 SW6       29.85F
GLASGOW        NOT AVBL
$$

KYZ024-025-028>034-038-045-046-053-280900-
NORTH CENTRAL KENTUCKY

CITY           SKY/WX    TMP DP  RH WIND       PRES   REMARKS
LOUISVILLE/SDF CLOUDY    76  72  87 SW5       29.83F
LOUISVILLE/LOU CLOUDY    75  74  96 SW3       29.84F
FORT KNOX      CLOUDY    73  72  99 CALM      29.83F
$$

KYZ035>037-039>044-047>052-055>060-089>105-280900-
NORTHEAST KENTUCKY

CITY           SKY/WX    TMP DP  RH WIND       PRES   REMARKS
LEXINGTON      MOCLDY    73  69  87 S5        29.87F
COVINGTON      CLOUDY    74  74 100 CALM      29.85S
FRANKFORT      CLOUDY    73  69  87 S5        29.84F
$$

KYZ054-064>069-076>088-106>120-280900-
SOUTHEAST KENTUCKY

CITY           SKY/WX    TMP DP  RH WIND       PRES   REMARKS
JACKSON        CLOUDY    70  69  97 CALM      29.89S
LONDON         PTCLDY    71  69  93 CALM      29.88F
SOMERSET       MOCLDY    70  70 100 CALM      29.89F
MIDDLESBORO    CLOUDY    71  71 100 CALM      29.92S
MONTICELLO     CLOUDY    73  72  96 W10       29.90F
$$





USA.gov is the U.S. government's official web portal to all federal, state and local government web resources and services.